www.pogodaiklimat.ru

Погода и климат >> Архив погоды >> Иран >> Kashan


ПОГОДА в Kashan

  • Прогноз погоды в Kashan
  • Монитор погоды в Kashan
  • Климат города

АРХИВ ПОГОДЫ в Kashan

Время (UTC), дата Ветер
(напр.,м/с)
 
Видим.   Явления Облачность Т
(С)
Тd
(С)
f
(%)
Тe
(С)
Тes
(С)
Комфортность P
(гПа)
Po
(гПа)
Тmin
(С)
Tmax
(С)
R
(мм)
R24
(мм)
S
(см)
00 7.12 штиль 0 10 км {дождь} ясно +8.4 +7.2 92 +7 +7 1009.9 902.4 2
03 7.12 штиль 0 5000 м дымка ясно +7.0 +6.2 95 +6 +6 1011.6 903.1 +6.4
06 7.12 штиль 0 10 км ясно +10.8 +8.5 86 +10 +14 1012.6 904.6
09 7.12 штиль 0 10 км ясно +17.0 -0.9 30 +17 +26 1009.7 902.8
12 7.12 С 5 10 км 3/3 1200 м
[Cu hum]
+17.8 -0.9 28 +17 +18 1009.3 902.1
15 7.12 ЮВ 3 10 км 3/3 1200 м
[Sc]
+13.4 +2.7 48 +12 +12 1012.4 903.8 +18.6
18 7.12 штиль 0 10 км ясно +10.6 +1.6 54 +10 +10 1013.9 905.3
21 7.12 штиль 0 10 км ясно +7.4 +3.4 76 +7 +7 905.9
00 8.12 штиль 0 10 км ясно +6.0 +3.8 86 +5 +5 1014.5 906.3
03 8.12 штиль 0 10 км ясно +5.0 +4.1 94 +4 +4 1016.6 907.3 +4.0
06 8.12 штиль 0 10 км ясно +10.2 +6.1 76 +10 +14 1016.1 907.3
09 8.12 В 2 10 км 5/5 1200 м
[Sc]
+14.4 0.0 37 +14 +18 1014.9 906.3
12 8.12 ЮЗ 3 10 км 9/5 1200 м
[Sc As trans]
+14.6 +3.3 47 +14 +14 1015.4 906.6
15 8.12 СЗ 2 10 км {дождь} 8/4 1200 м
[Sc As trans]
+12.2 +3.2 54 +12 +12 1018.4 908.6 +17.4
18 8.12 штиль 0 10 км {дождь} ясно +8.6 +5.2 79 +8 +8 1019.3 909.8 0.0
21 8.12 штиль 0 10 км ясно +6.8 +3.7 81 +6 +6 1019.2 910.1
00 9.12 штиль 0 10 км ясно +6.8 +2.7 75 +6 +6 1019.6 910.5
03 9.12 штиль 0 10 км ясно +2.4 +1.4 93 +1 +1 1021.8 911.2 +1.8
06 9.12 ЮВ 4 10 км 4/0
[Ci fib]
+12.0 -0.7 41 +10 +12 1019.3 910.0
09 9.12 штиль 0 10 км 1/1 1200 м
[Cu hum]
+15.6 -2.2 29 +16 +23 1017.8 908.9
12 9.12 штиль 0 10 км 4/4 1050 м
[Sc diur, vesp]
+17.2 -0.6 30 +17 +18 1016.0 907.6
15 9.12 штиль 0 10 км 3/3 1200 м
[Sc diur, vesp]
+12.0 +2.4 52 +12 +12 1018.9 908.5 +19.0
18 9.12 штиль 0 10 км ясно +8.6 +2.2 64 +8 +8 1018.6 909.4
21 9.12 штиль 0 10 км ясно +6.8 +1.6 69 +6 +6 1018.4 909.4
00 10.12 штиль 0 10 км ясно +4.2 +1.0 80 +3 +3 1018.7 909.6
03 10.12 штиль 0 10 км 4/0
[Ac trans]
+5.0 +2.2 82 +4 +4 1019.6 909.6 +3.8
06 10.12 штиль 0 10 км ясно +11.2 +4.0 61 +11 +15 1019.9 910.5
09 10.12 штиль 0 10 км ясно +15.2 +1.2 39 +15 +24 1017.5 908.6
12 10.12 СВ 4 10 км ясно +16.4 +0.7 34 +16 +17 1016.9 907.8
15 10.12 штиль 0 10 км 3/0
[Ac trans]
+10.6 +1.0 51 +10 +10 1019.1 908.9 +16.8
18 10.12 штиль 0 10 км ясно +9.0 +2.2 62 +9 +9 1019.4 910.0
21 10.12 штиль 0 10 км ясно +7.8 +2.3 68 +7 +7 1019.1 909.9
00 11.12 штиль 0 10 км ясно +5.8 +1.5 74 +5 +5 1019.6 910.6
03 11.12 штиль 0 10 км ясно +5.0 +2.2 82 +4 +4 1022.2 911.7 +3.0
06 11.12 штиль 0 10 км ясно +10.6 +3.2 60 +10 +14 1021.2 911.6
09 11.12 штиль 0 10 км ясно +16.0 -3.0 27 +16 +25 1019.0 910.2
12 11.12 В 3 10 км ясно +17.0 -4.2 23 +17 +18 1018.0 909.1
15 11.12 штиль 0 10 км ясно +11.6 -3.5 35 +12 +12 1020.4 910.2 +17.8
18 11.12 штиль 0 10 км ясно +7.9 -2.0 50 +8 +8 1021.2 911.2
21 11.12 штиль 0 10 км ясно +5.4 -1.2 62 +5 +5 1021.0 911.4
00 12.12 штиль 0 10 км ясно +4.6 -2.3 61 +4 +4 1021.2 911.8
03 12.12 штиль 0 10 км ясно +3.6 -3.0 62 +3 +3 1022.9 912.1 +1.6
06 12.12 штиль 0 10 км ясно +8.6 -1.9 48 +8 +13 1023.3 912.7
09 12.12 СВ 2 10 км ясно +17.2 -4.7 22 +18 +24 1019.7 910.6
12 12.12 СВ 5 10 км ясно +19.6 -8.7 14 +19 +20 1018.3 909.6
15 12.12 Ю 2 10 км ясно +12.6 -7.6 24 +12 +12 1020.7 910.3 +19.8
18 12.12 штиль 0 10 км ясно +7.6 -6.6 36 +8 +8 1021.6 911.1
21 12.12 штиль 0 10 км ясно +4.6 -6.7 44 +4 +4 1020.8 910.5
00 13.12 штиль 0 10 км ясно +4.0 -7.5 43 +4 +4 1020.2 911.2
03 13.12 штиль 0 10 км ясно +2.6 -7.5 47 +2 +2 1021.9 911.2 +1.4
06 13.12 штиль 0 10 км ясно +11.0 -7.2 27 +11 +15 1021.3 911.3
09 13.12 штиль 0 10 км ясно +16.2 -7.0 20 +16 +25 1019.3 909.9
12 13.12 штиль 0 10 км ясно +18.4 -8.7 15 +18 +20 1017.9 908.9
15 13.12 штиль 0 10 км ясно +13.0 -7.6 23 +13 +13 1020.5 910.0 +19.0
18 13.12 штиль 0 10 км ясно +8.6 -5.7 36 +9 +9 1020.5 910.7
21 13.12 штиль 0 10 км ясно +6.4 -6.2 40 +6 +6 911.0

 

Местоположение метеостанции Kashan (Иран): широта 33.98 долгота 51.45 высота над уровнем моря 982 м.

В архиве по умолчанию представлена погода в Kashan за последнюю неделю. Архивные данные за месяц целиком и за предыдущие месяцы, начиная с января 2011 года, Вы можете получить, выбрав интересующий диапазон дат из раскрывающегося списка и нажав кнопку "Ввод!".


*Определитесь, кто Вы:
робот инопланетянин человек

Внимание! Время в таблицах - всемирное. Для получения местного времени необходимо прибавить поправку, которая в Kashan равна 3.5 ч.

Смотрите также архив погоды в соседних городах и на ближайших метеорологических станциях:

Погода в Arak (Иран) (155 км)
Погода в Esfahan (Иран) (169 км)
Погода в Ali-Goodarz (Иран) (176 км)
Погода в Tehran (Иран) (189 км)
Погода в Shahre-Kord (Иран) (197 км)
Погода в Semnan (Иран) (248 км)
Погода в Hamedan (Иран) (285 км)
Погода в Ghazvin (Иран) (285 км)
Погода в Khorram Abad (Иран) (290 км)
Погода в Noshahr (Иран) (297 км)

Пояснения к столбцам:

Ветер - указаны скорость ветра в м/с - средняя за 10 мин, порывы в срок и между сроками (в фигурных скобках) и направление, откуда дует ветер: С - северный, СВ - северо-восточный, В - восточный, ЮВ - юго-восточный, Ю - южный, ЮЗ - юго-западный, З - западный, СЗ - северо-западный.
Видимость - горизонтальная дальность видимости в метрах или километрах. При видимости от 1 до 10 км при отсутствии осадков обычно наблюдается дымка, при ухудшении видимости до 1 км и менее - туман. В сухую погоду видимость может ухудшаться дымом, пылью или мглою.
Явления - указаны атмосферные явления, наблюдавшиеся в срок или в последний час перед сроком; фигурными скобками обозначены явления, наблюдавшиеся между сроками (за 1-3 часа до срока); квадратными скобками обозначены град или гололедные отложения с указанием их диаметра в мм.
Облачность - указаны через наклонную черту общая и нижняя облачность в баллах и высота нижней границы облаков в метрах; квадратными скобками обозначены формы облаков: Ci - перистые, Cs - перисто-слоистые, Cc - перисто-кучевые, Ac - высококучевые, As - высокослоистые, Sc - слоисто-кучевые, Ns - слоисто-дождевые, Cu - кучевые, Cb - кучево-дождевые. Подробнее классификацию облаков см. в Атласе облаков (PDF).
T - Температура воздуха - температура, измеренная на высоте 2 м над землей.
Td - Температура точки росы - температура, при понижении до которой содержащийся в воздухе водяной пар достигнет насыщения.
f - Относительная влажность воздуха - влажноcть воздуха, измеренная на высоте 2 м над землей.
Te - Эффективная температура - температура, которую ощущает одетый по сезону человек в тени. Характеристика душности погоды. При расчете учитывается влияние влажности воздуха и скорости ветра на теплоощущения человека.
Tes - Эффективная температура на солнце - температура, которую ощущает человек, с поправкой на солнечный нагрев. Характеристика знойности погоды. Зависит от высоты солнца над горизонтом, облачности и скорости ветра. Ночью, в пасмурную погоду, а также при ветре 12 м/с и более поправка равна нулю.
P - Атмосферное давление - приведенное к уровню моря атмосферное давление.
Po - Атмосферное давление - измеренное на уровне метеостанции атмосферное давление.
Tmin - Минимальная температура - минимум температуры воздуха на высоте 2 м над землей.
Tmax - Максимальная температура - максимум температуры воздуха на высоте 2 м над землей.
R - Количество осадков - Количество выпавших осадков за период времени, мм. При наведении курсора мыши на число - период времени, за который выпало указанное количество осадков.
R24 - Количество осадков - Количество выпавших осадков за 24 часа, мм.
S - Снежный покров - Высота снежного покрова, см. При наведении курсора мыши на число - состояние снежного покрова и степень покрытия местности в баллах.